カタログに戻る

YAOGAN-33 02

運用中軍事SSO
NORAD 53698·PAYLOAD·🇨🇳 China

打ち上げ Sep 2, 2022 から Jiuquan Satellite Launch Center

Loading…

次のパス (今後24時間)

TLE

最新Source: Space-Track

元期: Sep 14, 2026, 15:23 UTC

1 53698U 22106A   26257.64105663  .00000082  00000-0  27392-4 0  9992
2 53698  98.1846 264.1770 0000937 195.4860 164.6311 14.58751048214763

AllMySatでYAOGAN-33 02をリアルタイム追跡

Download on the App Store